dcsimg
Board Meeting Notifications

Date : 22/05/2020

The following table is a consolidated list of board meeting dates
announced by listed issuers. This list may not be exhaustive
and is for reference only. You should always refer to the
announcements issued by listed issuers. To search for
announcements and corporate communications issued by listed
issuers, please use the following link:
https://www.hkexnews.hk/index.htm

Note: Entries will be removed after the board meeting date.


BM DateStock Short Name CodePurposePeriod
-----------------------------------------------------------------------
25/05/2020C P PROCUREMENT 1094FIN RESY.E.31/12/19
25/05/2020LE SAUNDA  738FIN RES/DIVY.E.29/02/20
25/05/2020MEITUAN-W 3690RESULTSQTR ENDED31/03/20
25/05/2020SUNCITY GROUP 1383FIN RES/DIVY.E.31/12/19
25/05/2020TOPSPORTS 6110RESULTS/FIN DIVY.E.29/02/20
25/05/2020TUS INTL  872FIN RES/DIVY.E.31/12/19
26/05/2020GOLDEN FAITH GP 2863INT RES/DIV6-MTH-ENDED31/03/20
26/05/2020KINGSOFT 3888QUARTER RESULTS3-MTH-ENDED31/03/20
26/05/2020LEE'S PHARM  950QUARTER RESULTS3-MTH-ENDED31/03/20
26/05/2020OIWAHPAWN 1319RESULTS/FIN DIVY.E.29/02/20
26/05/2020TRULY INT'L  7321ST QUARTER RES3-MTH-ENDED31/03/20
27/05/2020ALI HEALTH  241FIN RES/DIVY.E.31/03/20
27/05/2020CSPC PHARMA 10931ST QUARTER RES3-MTH-ENDED31/03/20
27/05/2020CTR HOLDINGS 1416FIN RES/DIVY.E.29/02/20
27/05/2020DYNAM JAPAN 6889FIN RES/DIVY.E.31/03/20
27/05/2020EMINENCE ENT  616FIN RES/DIVY.E.31/03/20
27/05/2020I.T  999FIN RES/DIVY.E.29/02/20
27/05/2020INFINITY DEV  640INT RES/DIV6-MTH-ENDED31/03/20
28/05/2020ALI PICTURES 1060FIN RES/DIVY.E.31/03/20
28/05/2020HYBRID KINETIC 1188FIN RES/DIVY.E.31/12/19
28/05/2020INNOVAX HLDGS 2680FIN RES/DIVY.E.29/02/20
28/05/2020SINO BIOPHARM 11771ST QUARTER RES/DIV3-MTH-ENDED31/03/20
28/05/2020WILLAS-ARRAY  854RESULTS/FIN DIVY.E.31/03/20
29/05/2020APOLLO FMG  860INT RES/DIV6-MTH-ENDED31/03/20
29/05/2020BOYAA  434FIN RES/DIVY.E.31/12/19
29/05/2020CENTRAL HOLDING 1735FIN RES/DIVY.E.31/03/20
29/05/2020CMRU 1636FIN RESY.E.31/12/19
29/05/2020HUISHENG INTL 1340FIN RES/DIVY.E.31/12/19
29/05/2020HUOBI TECH 1611INT RES/DIV6-MTH-ENDED31/03/20
29/05/2020MOBILE INTERNET 1439FIN RESY.E.31/12/19
29/05/2020RI YING HLDGS 1741INT RES/DIV6-MTH-ENDED31/03/20
29/05/2020RUNDONG AUTO 1365FIN RESY.E.31/12/19
29/05/2020S&T HLDGS 3928INT RES/DIV6-MTH-ENDED31/03/20
29/05/2020SHENYANG PUBLIC  747FIN RES/DIVY.E.31/12/19
29/05/2020SINCERE  244FIN RESY.E.29/02/20
29/05/2020TELENT LIEPIN 61001ST QUARTER RES3-MTH-ENDED31/03/20
29/05/2020TIANGE 19801ST QUARTER RES3-MTH-ENDED31/03/20
29/05/2020TIANJINPORT DEV 3382FIN RES/DIVY.E.31/12/19
30/05/2020SAMPLE TECH 1708FIN RESY.E.31/12/19
31/05/2020CAR INC  6991ST QUARTER RES3-MTH-ENDED31/03/20
01/06/2020LINK REIT  823FIN RES/DISTY.E.31/03/20
11/06/2020HIFOOD GROUP  442FIN RES/DIVY.E.31/03/20
15/06/2020GREEN LEADER   61FIN RES/DIVY.E.31/12/19
16/06/2020WANT WANT CHINA  151FIN RES/DIVY.E.31/03/20
17/06/2020CHINA DONGXIANG 3818FIN RES/DIV12-MTH-ENDED31/03/20
26/06/2020LAMTEX HLDGS 1041FIN RESY.E.31/12/19
29/06/2020LA CHAPELLE 6116FIN RES/DIVY.E.31/12/19
29/06/2020LEE KEE  637FIN RES/DIVY.E.31/03/20